Tracking 28518 objects as of 2-Mar-2024
HD Live streaming from Space Station
objects crossing your sky now

STARLINK-30963

Track STARLINK-30963 now!
10-day predictions
STARLINK-30963 is classified as:


NORAD ID: 58444
Int'l Code: 2023-183H
Perigee: 565.6 km
Apogee: 566.8 km
Inclination: 43.0 °
Period: 95.8 minutes
Semi major axis: 6937 km
RCS: Unknown
Launch date: November 28, 2023
Source: United States (US)
Launch site: AIR FORCE EASTERN TEST RANGE (AFETR)
Your satellite tracking list
Your tracking list is empty




NASA's NSSDC Master Catalog

Two Line Element Set (TLE):
1 58444U 23183H   24061.49372758  .00002147  00000-0  17391-3 0  9998
2 58444  42.9974  94.1895 0000930 247.2236 112.8508 15.02540695 15677
Source of the keplerian elements: AFSPC